Wind_Speed
22 23 23 25 26 27 26 25 23 23 23 23 23 25 25 25 24 22 18 18 17 16 16 16 16 16 15 15 15 15 14 14 14 13 12 12 11 11 10 10 9 9 8 8 8 8 7 7 6
24 24 25 26 27 27 25 24 24 24 24 24 24 26 26 26 25 23 21 20 19 18 18 18 18 17 17 17 17 16 16 16 16 15 14 13 12 12 12 11 11 10 10 9 9 9 8 8 7
25 26 27 27 27 26 25 25 25 26 26 26 26 26 26 26 25 24 23 22 21 20 20 20 20 19 19 19 18 18 17 17 17 16 16 15 14 14 13 13 12 12 11 11 10 10 9 9 8
27 28 28 28 27 26 26 26 26 27 27 27 27 27 27 26 26 25 25 24 23 22 22 21 21 21 20 20 20 19 19 19 19 18 17 16 16 15 14 14 14 13 13 12 11 11 10 10 9
28 29 30 29 28 26 26 27 28 29 29 29 29 29 28 27 27 27 26 25 25 24 23 23 22 22 22 21 21 21 21 20 20 19 18 18 17 16 16 16 15 14 14 14 13 12 11 11 10
31 31 31 30 29 28 28 29 30 30 30 30 30 30 29 29 28 28 28 27 27 26 26 24 23 23 23 22 22 22 22 21 21 21 20 20 19 18 18 17 17 16 16 15 14 14 13 12 11
32 32 32 31 30 30 30 31 31 31 31 31 31 31 31 30 30 29 29 29 28 28 27 26 25 24 24 24 23 23 23 23 23 23 22 22 21 20 19 19 18 17 17 16 16 15 14 13 12
33 34 34 33 32 31 31 32 32 32 32 33 33 33 32 32 31 31 31 31 30 29 29 28 27 26 26 26 25 25 24 24 24 24 24 23 23 22 21 20 20 19 19 18 17 16 15 15 13
35 36 35 34 33 32 33 34 34 34 34 34 34 34 33 33 32 32 33 32 32 31 30 30 29 28 27 27 27 27 26 26 26 25 25 24 24 23 23 22 21 20 20 20 19 18 17 17 16
37 37 36 36 35 35 35 36 36 36 36 36 36 36 35 35 34 34 34 34 33 33 32 32 31 30 30 29 29 28 28 28 27 27 26 26 26 25 24 24 23 22 22 21 21 20 19 19 18
37 37 37 38 38 37 38 38 38 39 39 38 38 37 37 37 36 36 36 36 35 34 35 34 34 33 32 32 31 31 30 29 29 28 28 28 27 27 26 26 25 24 24 23 22 21 21 21 20
38 37 37 38 40 40 40 40 41 41 40 40 40 39 39 39 38 38 38 37 37 37 37 37 36 35 34 34 33 33 32 32 31 30 30 29 29 29 28 28 27 27 26 25 24 23 22 22 22
38 37 38 39 40 41 42 42 42 42 42 42 43 42 42 42 41 40 40 40 39 39 38 38 38 37 36 35 35 34 34 34 33 32 32 31 31 30 30 29 28 28 28 27 26 25 24 24 23
38 38 39 40 41 42 43 43 44 43 44 44 44 45 44 44 44 43 43 42 41 41 40 40 39 39 38 37 37 37 36 35 34 34 34 33 33 32 31 30 30 29 29 29 28 27 26 26 25
38 38 39 40 41 43 44 45 44 44 45 44 45 46 46 46 46 46 45 44 43 43 42 42 41 40 40 40 39 39 38 37 36 35 35 34 34 33 32 31 31 31 30 30 29 29 28 27 26
37 39 40 40 41 43 45 46 45 45 45 45 46 47 48 48 48 47 47 46 46 45 44 44 43 42 42 41 41 41 40 39 38 37 36 35 35 34 34 33 32 32 31 31 30 30 29 28 28
37 39 39 39 41 42 45 46 46 46 47 47 47 48 49 49 49 49 48 48 48 47 46 45 45 44 43 42 42 42 42 41 40 39 38 37 37 36 35 35 34 33 32 31 31 31 30 30 29
36 37 38 38 39 41 44 45 46 47 48 48 48 48 49 49 48 49 49 49 49 48 48 47 47 46 46 45 44 44 44 43 42 41 40 39 38 38 38 37 36 35 34 33 32 32 32 32 31
35 36 37 37 37 39 42 44 45 46 47 48 48 48 48 48 48 49 49 50 50 49 49 49 49 48 48 48 47 47 46 46 45 43 42 41 40 40 39 38 38 36 35 35 34 33 32 32 32
32 34 35 35 36 37 39 42 44 46 46 47 48 48 48 48 48 48 49 49 50 50 50 50 50 50 50 49 48 48 47 47 46 45 44 43 42 41 40 40 39 38 37 35 35 35 35 34 33
31 32 33 34 34 35 36 38 41 44 45 46 48 49 49 49 50 50 50 50 50 50 50 51 52 52 51 50 49 49 48 48 48 47 45 44 44 43 42 40 39 39 39 37 36 36 36 35 35
29 30 32 32 32 33 34 36 36 39 42 44 46 48 49 49 50 51 51 51 51 51 51 52 53 53 52 52 51 51 50 48 47 47 47 46 45 43 42 41 40 40 40 39 38 37 37 36 36
26 27 28 29 30 32 33 35 35 36 38 41 43 46 47 49 49 50 51 52 52 53 53 53 53 53 53 53 52 52 51 50 48 48 48 47 47 44 43 42 42 40 40 39 38 38 37 37 37
24 25 25 27 28 30 31 34 36 36 36 38 40 43 45 48 49 50 51 51 52 53 54 54 54 54 54 54 54 54 52 51 51 49 49 48 47 46 45 44 43 43 41 40 39 38 38 38 37
23 23 23 25 27 30 30 32 35 35 36 37 38 40 43 45 47 49 50 51 52 52 53 54 54 53 54 55 56 55 55 53 53 52 50 49 48 47 46 46 45 44 43 42 41 40 39 39 39
22 22 22 24 26 28 29 30 32 33 35 37 38 39 41 43 45 47 49 49 51 52 53 53 54 54 54 54 55 56 56 55 54 53 52 50 49 48 48 47 47 46 46 45 44 42 41 40 40
20 21 22 23 25 26 28 29 31 32 34 35 37 39 40 42 43 45 47 48 49 51 52 53 54 55 55 55 55 56 56 56 56 56 54 53 52 50 49 48 47 47 46 46 46 45 43 42 42
20 20 22 22 24 25 27 28 30 32 33 35 37 38 38 40 41 42 45 47 49 51 52 53 53 54 55 55 56 56 56 56 56 56 56 55 54 53 51 49 48 48 48 47 47 47 45 44 43
20 21 23 24 24 26 27 27 29 31 33 35 36 37 37 38 38 40 42 44 46 48 51 52 53 53 54 54 55 56 57 57 57 56 56 55 54 54 53 52 50 49 48 48 48 47 47 45 45
20 20 22 24 24 25 28 29 28 30 32 34 35 36 38 38 39 40 41 42 44 46 48 49 51 53 53 54 55 56 57 57 57 57 57 57 56 55 54 53 52 51 50 49 49 48 47 47 47
Wind_Direction
249 248 247 246 246 245 245 243 241 239 237 234 232 233 233 234 236 238 236 235 234 231 229 228 227 226 225 225 225 227 228 226 223 223 223 222 221 221 220 221 220 219 219 219 220 219 217 217 214
249 248 247 247 246 246 245 243 242 241 239 236 233 233 233 233 235 237 236 236 235 233 231 231 229 229 228 227 228 229 229 227 225 224 223 224 224 224 222 223 225 225 225 225 225 222 222 223 222
249 249 248 248 247 247 246 244 243 242 240 237 234 234 234 235 235 236 235 235 235 234 233 233 231 231 230 229 230 230 230 227 225 226 226 226 226 226 225 226 228 230 230 229 228 227 226 226 226
250 249 249 249 248 247 245 246 245 243 240 239 237 235 235 235 235 235 235 234 234 235 234 233 233 232 231 231 231 231 231 228 226 227 228 227 227 227 228 229 230 232 233 232 231 231 229 229 230
251 250 250 250 249 246 244 244 244 243 241 239 238 237 236 236 235 236 235 235 234 235 235 234 234 233 232 232 231 231 230 229 228 229 229 228 228 229 230 231 232 234 235 235 234 234 232 232 232
251 250 250 250 249 246 244 242 242 242 241 240 239 238 237 236 235 235 235 235 234 234 234 235 235 234 233 232 231 231 231 231 230 230 230 231 231 232 232 233 234 234 235 235 235 235 235 236 234
251 251 251 251 248 245 243 243 242 242 241 240 239 239 237 237 236 235 235 235 234 234 234 234 235 235 234 233 232 232 232 233 232 231 232 232 232 232 233 234 234 236 236 236 236 235 236 237 237
252 252 252 251 248 245 243 243 243 242 241 240 239 238 237 237 237 236 235 235 234 234 234 235 235 234 235 234 233 232 233 233 233 232 232 233 232 233 234 235 235 237 237 237 236 236 236 235 237
253 252 251 250 248 245 243 243 242 241 240 240 239 238 238 237 237 237 236 236 235 235 235 235 235 235 235 235 234 233 233 234 234 233 233 233 233 233 234 235 236 237 238 238 238 238 237 237 239
253 252 251 249 247 245 243 243 243 242 240 240 239 238 237 237 236 236 237 237 237 236 236 236 235 236 236 236 235 234 234 235 235 235 235 234 234 234 235 237 237 237 238 239 239 240 239 239 242
254 253 250 248 247 245 244 243 243 243 242 242 241 240 239 238 236 235 236 237 237 237 237 237 236 236 236 236 236 235 235 235 236 236 237 236 235 235 237 238 239 238 239 240 242 242 242 242 244
255 253 250 248 247 246 245 244 243 243 242 242 243 241 239 239 237 236 236 237 236 236 236 236 236 237 237 236 236 236 236 236 236 237 238 238 238 237 238 239 240 240 240 240 241 243 243 244 245
255 253 251 249 247 247 246 245 244 243 243 242 242 241 239 238 237 236 235 236 237 236 237 237 236 237 237 237 236 237 237 237 237 237 238 239 239 239 239 239 240 240 240 240 241 243 244 245 246
256 254 252 250 248 247 247 247 246 244 243 242 241 241 240 238 237 236 235 235 236 236 236 237 236 237 237 237 236 236 237 237 237 238 238 239 240 240 239 238 239 240 240 241 242 243 244 245 246
256 255 253 251 249 248 248 247 247 245 244 242 241 240 239 238 237 236 236 235 235 235 235 236 236 236 237 236 235 235 235 236 236 237 238 239 239 240 239 238 239 239 240 242 242 243 243 244 246
256 255 254 252 251 249 248 248 247 245 244 242 240 240 239 238 237 237 236 235 235 235 235 236 235 236 236 236 234 234 234 235 236 237 237 238 239 240 239 239 239 239 239 241 242 243 243 244 245
256 255 254 253 252 250 249 248 246 245 243 241 240 239 239 238 237 236 236 235 235 235 235 235 235 235 235 236 235 235 234 234 235 237 238 238 237 238 239 239 240 239 239 240 241 243 244 245 246
258 256 256 255 253 252 249 247 245 244 242 241 239 239 239 238 237 236 235 235 235 234 235 235 235 235 234 234 235 236 235 235 235 236 238 238 237 237 238 238 239 240 240 240 240 242 245 246 246
262 259 256 255 254 252 250 247 244 243 242 241 239 238 238 238 237 236 235 235 234 234 234 235 235 235 235 234 235 236 236 236 236 236 236 237 237 237 238 239 239 240 241 241 242 242 244 246 246
265 262 259 256 253 252 250 248 245 242 241 241 239 238 238 237 236 235 235 235 235 234 234 234 235 236 236 235 235 235 236 235 235 236 235 236 236 237 238 239 240 240 241 242 243 243 244 245 246
266 264 261 257 252 250 251 250 247 244 241 240 239 238 237 237 236 236 236 235 235 234 234 234 235 235 235 235 234 234 235 235 235 235 234 235 237 238 238 239 240 241 242 243 243 243 244 244 245
268 265 262 258 253 250 248 250 248 245 242 240 238 237 236 236 236 236 235 235 234 234 234 234 235 235 236 236 235 234 234 235 234 234 235 235 236 236 237 238 239 241 242 243 243 243 243 244 245
270 265 261 259 256 254 249 249 246 244 242 240 238 237 236 236 236 235 235 235 235 235 235 235 235 236 236 235 235 235 234 234 234 234 235 236 237 237 236 238 239 240 242 243 242 244 245 244 244
268 263 259 258 256 255 252 250 248 244 241 240 238 237 237 237 237 237 236 237 236 236 235 235 235 236 236 235 235 235 235 235 234 234 235 235 236 236 237 238 239 239 240 241 242 243 244 243 243
265 262 258 257 255 255 252 251 249 245 242 241 240 239 239 239 238 238 238 238 237 236 235 234 235 236 236 236 236 235 235 236 235 234 234 235 235 236 237 238 239 240 241 241 242 243 244 243 243
265 262 260 258 255 254 251 250 248 245 243 242 241 241 240 239 238 238 238 238 238 237 235 234 234 235 236 236 237 237 236 236 236 235 235 236 236 236 237 238 239 240 241 241 242 242 243 243 244
265 264 265 261 257 255 251 250 248 246 243 242 242 241 240 240 240 239 238 238 237 237 236 235 235 235 236 236 236 236 236 236 236 236 236 236 237 237 237 238 239 239 240 240 241 242 243 244 245
265 268 266 262 259 257 255 253 252 249 248 244 242 242 242 241 241 240 240 240 239 237 236 236 236 236 235 236 236 236 236 236 236 236 237 237 237 237 237 238 239 239 240 240 241 243 244 244 245
271 268 265 262 260 258 258 258 256 254 252 249 246 244 243 242 241 240 240 240 240 239 238 237 236 236 236 236 236 236 236 236 236 236 236 236 237 238 239 239 239 239 239 240 241 243 243 243 245
276 274 268 262 259 260 261 259 258 258 256 253 250 246 244 243 241 241 241 241 241 240 239 238 237 237 236 236 237 237 236 236 236 236 236 236 237 237 238 239 240 239 240 241 242 243 243 244 245
Height
5809 5810 5811 5813 5814 5815 5816 5820 5822 5823 5825 5826 5828 5829 5831 5833 5836 5840 5841 5841 5842 5844 5845 5846 5848 5849 5851 5853 5854 5856 5857 5859 5860 5861 5863 5864 5865 5866 5867 5868 5869 5869 5870 5871 5871 5872 5873 5873 5874
5804 5805 5806 5807 5808 5809 5812 5815 5817 5819 5820 5822 5823 5824 5826 5829 5831 5834 5836 5837 5839 5841 5842 5844 5845 5847 5849 5850 5852 5853 5855 5857 5858 5860 5861 5862 5864 5865 5866 5867 5868 5868 5869 5870 5871 5871 5872 5873 5873
5798 5799 5801 5801 5802 5805 5808 5810 5812 5813 5815 5816 5818 5820 5822 5825 5827 5830 5832 5834 5836 5837 5839 5841 5842 5844 5846 5848 5849 5851 5853 5854 5856 5858 5859 5861 5862 5863 5864 5865 5866 5867 5868 5869 5870 5870 5871 5872 5872
5792 5793 5794 5795 5797 5800 5803 5805 5806 5807 5809 5811 5813 5815 5818 5820 5823 5825 5827 5830 5832 5833 5835 5837 5839 5841 5843 5844 5846 5848 5850 5852 5853 5855 5857 5858 5860 5861 5862 5863 5865 5866 5867 5868 5868 5869 5870 5871 5871
5784 5786 5787 5788 5791 5795 5797 5798 5799 5801 5803 5805 5807 5810 5812 5815 5817 5820 5822 5825 5827 5829 5831 5833 5835 5837 5839 5841 5843 5845 5847 5849 5851 5853 5854 5856 5857 5859 5860 5861 5863 5864 5865 5866 5867 5868 5869 5870 5870
5777 5778 5780 5782 5786 5788 5790 5791 5793 5794 5796 5799 5801 5804 5806 5809 5812 5814 5817 5819 5822 5824 5826 5828 5831 5833 5835 5837 5839 5841 5844 5846 5848 5850 5851 5853 5855 5856 5858 5859 5860 5862 5863 5864 5865 5866 5867 5868 5869
5770 5771 5773 5776 5779 5781 5783 5784 5786 5788 5790 5792 5794 5797 5800 5803 5806 5808 5811 5813 5816 5819 5821 5824 5826 5828 5831 5833 5835 5838 5840 5842 5844 5846 5848 5850 5852 5853 5855 5856 5858 5859 5860 5861 5863 5864 5865 5866 5867
5761 5763 5764 5767 5771 5774 5776 5777 5779 5781 5783 5785 5787 5791 5794 5797 5799 5802 5805 5808 5811 5813 5815 5818 5821 5824 5826 5828 5831 5833 5835 5838 5840 5842 5844 5846 5848 5850 5851 5853 5855 5856 5857 5859 5860 5861 5863 5864 5865
5751 5754 5756 5760 5763 5766 5768 5769 5771 5773 5775 5777 5780 5784 5787 5790 5793 5796 5798 5801 5805 5807 5810 5813 5815 5818 5821 5823 5826 5828 5831 5833 5835 5837 5840 5842 5844 5846 5848 5849 5851 5853 5854 5855 5857 5858 5860 5861 5862
5740 5743 5748 5751 5753 5756 5758 5760 5762 5764 5767 5769 5772 5776 5779 5782 5786 5789 5792 5795 5798 5801 5804 5807 5810 5813 5815 5818 5821 5823 5826 5828 5830 5833 5835 5837 5840 5842 5843 5845 5847 5849 5850 5852 5853 5855 5856 5858 5859
5730 5734 5739 5740 5743 5745 5748 5750 5752 5755 5758 5761 5765 5768 5771 5774 5778 5781 5784 5788 5791 5794 5797 5800 5803 5806 5809 5812 5815 5818 5820 5823 5825 5827 5830 5832 5835 5837 5839 5841 5843 5844 5846 5848 5850 5851 5853 5854 5856
5720 5724 5727 5729 5731 5734 5737 5739 5742 5745 5750 5753 5755 5759 5762 5766 5769 5773 5776 5780 5783 5786 5790 5793 5796 5799 5802 5805 5808 5811 5814 5817 5819 5822 5824 5827 5829 5832 5834 5836 5838 5840 5842 5843 5845 5847 5849 5850 5851
5710 5714 5716 5718 5720 5723 5725 5728 5731 5735 5738 5741 5745 5748 5752 5756 5760 5764 5767 5770 5774 5778 5781 5785 5788 5791 5795 5798 5801 5804 5807 5810 5813 5815 5818 5821 5823 5826 5828 5830 5832 5834 5836 5838 5840 5842 5844 5845 5847
5699 5702 5704 5706 5708 5711 5713 5717 5720 5724 5727 5730 5734 5737 5741 5745 5749 5753 5757 5761 5765 5769 5773 5776 5780 5783 5786 5790 5793 5796 5799 5803 5806 5809 5811 5814 5817 5819 5822 5824 5826 5829 5831 5833 5835 5837 5839 5840 5842
5687 5689 5691 5694 5696 5698 5701 5705 5709 5713 5715 5719 5722 5726 5730 5734 5738 5743 5747 5751 5755 5759 5763 5767 5771 5774 5778 5781 5785 5788 5791 5795 5798 5801 5804 5807 5810 5813 5815 5818 5820 5823 5825 5827 5829 5831 5833 5835 5837
5674 5675 5678 5682 5683 5685 5689 5692 5697 5699 5703 5707 5710 5713 5717 5722 5727 5732 5736 5740 5745 5749 5753 5757 5761 5765 5769 5772 5776 5779 5783 5786 5790 5793 5797 5800 5803 5806 5808 5811 5814 5816 5818 5821 5823 5825 5827 5829 5831
5661 5663 5666 5669 5670 5672 5675 5679 5683 5685 5689 5693 5697 5701 5705 5710 5715 5720 5724 5729 5734 5738 5743 5747 5751 5755 5759 5763 5766 5770 5774 5777 5781 5785 5788 5792 5795 5798 5801 5804 5807 5809 5811 5814 5817 5819 5821 5823 5825
5650 5652 5655 5657 5658 5660 5662 5666 5669 5673 5676 5680 5685 5689 5693 5698 5703 5708 5713 5717 5722 5727 5732 5736 5741 5745 5749 5753 5756 5760 5764 5768 5772 5776 5779 5783 5787 5790 5793 5797 5799 5802 5804 5807 5810 5812 5814 5816 5818
5640 5641 5643 5645 5647 5648 5650 5653 5656 5660 5664 5668 5672 5677 5682 5687 5691 5696 5701 5706 5710 5715 5720 5724 5729 5734 5738 5742 5746 5750 5754 5758 5762 5766 5770 5774 5778 5781 5785 5789 5792 5794 5797 5800 5802 5805 5807 5809 5812
5629 5629 5631 5634 5635 5636 5638 5640 5643 5647 5651 5656 5660 5665 5670 5675 5679 5684 5689 5694 5698 5703 5708 5713 5717 5722 5727 5731 5735 5740 5743 5748 5752 5756 5761 5764 5768 5772 5776 5780 5783 5786 5789 5792 5795 5797 5800 5802 5804
5618 5619 5620 5622 5625 5625 5627 5629 5631 5635 5639 5643 5647 5652 5657 5662 5667 5672 5676 5681 5686 5691 5696 5700 5705 5710 5715 5719 5724 5728 5732 5737 5741 5746 5751 5754 5759 5763 5767 5771 5774 5778 5781 5784 5786 5789 5792 5794 5797
5609 5610 5610 5612 5613 5615 5617 5617 5620 5623 5627 5631 5635 5639 5644 5649 5654 5659 5663 5668 5673 5679 5683 5688 5692 5697 5702 5707 5712 5716 5721 5726 5731 5736 5740 5745 5749 5753 5757 5761 5765 5769 5772 5775 5778 5781 5784 5786 5789
5601 5601 5602 5603 5604 5605 5607 5608 5610 5612 5616 5619 5622 5626 5631 5636 5641 5646 5650 5656 5661 5666 5671 5675 5680 5685 5690 5695 5700 5705 5710 5715 5720 5725 5730 5734 5739 5743 5747 5752 5756 5759 5763 5766 5769 5772 5775 5778 5780
5592 5593 5594 5595 5596 5597 5598 5598 5600 5602 5605 5608 5611 5615 5619 5623 5628 5633 5638 5642 5648 5653 5658 5663 5667 5672 5677 5683 5688 5693 5699 5704 5709 5714 5719 5723 5728 5733 5738 5742 5746 5749 5753 5757 5760 5763 5766 5769 5772
5585 5586 5587 5587 5587 5587 5589 5589 5591 5592 5595 5598 5601 5604 5608 5612 5616 5621 5625 5630 5634 5639 5645 5650 5655 5660 5665 5670 5675 5681 5687 5692 5697 5702 5708 5713 5718 5723 5727 5732 5736 5739 5743 5747 5750 5753 5757 5760 5763
5577 5578 5579 5578 5578 5579 5580 5580 5582 5584 5586 5588 5591 5594 5597 5601 5604 5608 5612 5617 5621 5626 5632 5637 5642 5647 5652 5657 5663 5668 5674 5680 5685 5691 5696 5702 5707 5712 5716 5721 5725 5729 5733 5737 5740 5744 5747 5750 5753
5570 5571 5571 5571 5570 5570 5570 5571 5574 5575 5577 5579 5582 5584 5587 5590 5593 5597 5601 5605 5609 5613 5619 5624 5629 5634 5639 5645 5650 5655 5661 5667 5673 5679 5684 5690 5695 5700 5705 5709 5714 5718 5722 5726 5730 5733 5737 5740 5743
5565 5564 5564 5563 5563 5562 5563 5564 5566 5568 5569 5571 5573 5575 5577 5580 5582 5586 5589 5593 5597 5601 5606 5611 5616 5622 5627 5632 5637 5643 5648 5654 5660 5666 5672 5677 5683 5688 5693 5698 5702 5707 5711 5715 5719 5723 5726 5730 5733
5559 5559 5557 5556 5556 5556 5556 5560 5559 5560 5561 5562 5564 5566 5567 5570 5572 5575 5578 5581 5585 5589 5594 5598 5604 5609 5614 5619 5624 5630 5635 5641 5647 5653 5659 5665 5670 5675 5681 5686 5691 5695 5700 5704 5708 5712 5715 5719 5722
5552 5551 5551 5551 5550 5549 5549 5554 5552 5551 5552 5553 5554 5556 5558 5560 5562 5565 5567 5571 5574 5578 5582 5586 5591 5596 5601 5606 5611 5616 5622 5627 5633 5640 5646 5651 5657 5663 5668 5673 5678 5683 5687 5692 5696 5700 5704 5708 5712